Location: Cheching
(60.0667°N, 164.2167°W)
Time: 11:40:17
(UTC+00:00)

FENGYUN 1C DEB - Pass Details

Date: 26 September 2021
Orbit: 727 x 819 km, 99.4° (Epoch: 17 October)

Event Time Altitude Azimuth Distance (km) Brightness Sun altitude
Rises 05:29:56 0° 21° (NNE) 3,203 ? -6.3°
Reaches altitude 10° 05:33:05 10° 360° (N) 2,291 ? -6.7°
Maximum altitude 05:35:56 15° 325° (NW) 1,951 ? -7.1°
Drops below altitude 10° 05:38:49 10° 290° (WNW) 2,319 ? -7.4°
Sets 05:42:02 0° 269° (W) 3,264 ? -7.8°
